"Pseudo-MPEC" for P10X8WU

Created 2020 Feb 21 5:07:22 UT using Find_Orb

Click here for an explanation of pseudo-MPECs

 
 Astrometry: 
     P10X8WU  C2020 01 27*gV=_AE$[v@3^UO;NhE/5D=EF]dlHg+5CNd,yRL2j[a_/O*??O6OF51
     P10X8WU  C2020 01 27s(ut*bYs+5GIkAstrometrySDY4h:ON$Y2wx;gpE;y@5)]H#B7$lF51
     P10X8WU  C2020 01 27)XnMk];,2Credacted;dkVaCqN:im7XPtZ-clickrfb!D1here(iF51
     P10X8WU  C2020 01 27nwuZu9Q#)qsLdfor0_o^sVTkBqFfexplanation((0PZ+dUyj,yHF51

Station data:
(F51) Pan-STARRS 1, Haleakala  (N20.707235 W156.255910)  US/Hawaii.
   Observers N. Primak, A. Schultz, S. Watters, J. Thiel, T. Goggia. Measurer
   PS1 Science Consortium. 1.8-m Ritchey-Chrétien + CCD.

Orbital elements:  P10X8WU
   Perihelion 2019 Aug 29.736125 +/- 309 TT = 17:40:01 (JD 2458725.236125)
Epoch 2020 Jan 28.0 TT = JDT 2458876.5   Earth MOID: 0.3427   Ma: 0.0513
M  41.98165307 +/- 80               (J2000 ecliptic)          AutoNEOCP
n   0.27753918 +/- 0.219            Peri.   44.27962 +/- 60
a   2.32766158 +/- 1.22             Node     0.61577 +/- 32
e   0.4321872 +/- 0.248             Incl.    7.09984 +/- 47
P   3.55                   H 20.2   G  0.15   U 11.7  SR
q 1.32167596 +/- 1.01    Q 3.33364720 +/- 26.6
From 4 observations 2020 Jan. 27 (53.7 min); mean residual 0".12
Residuals in arcseconds: 
200127 F51  .06-  .07+    200127 F51  .20+  .15+    
200127 F51  .01-  .18-    200127 F51  .13-  .04-    

Ephemerides (geocentric):
Date (UTC) HH   RA              Dec         delta   r     elong  mag " sig PA
---- -- -- --  -------------   -----------  ------ ------ -----  --- ---- ---
2020 02 21 05  09 23 57.214   +23 54 54.03  1.0575 2.0216 162.2 22.4  36d 163
2020 02 21 06  09 23 54.309   +23 54 50.52  1.0578 2.0218 162.1 22.4  36d 163
2020 02 21 07  09 23 51.407   +23 54 46.99  1.0582 2.0220 162.1 22.4  36d 163
2020 02 21 08  09 23 48.508   +23 54 43.45  1.0585 2.0223 162.0 22.4  36d 163
2020 02 21 09  09 23 45.613   +23 54 39.88  1.0588 2.0225 162.0 22.4  36d 163
2020 02 21 10  09 23 42.720   +23 54 36.29  1.0592 2.0227 161.9 22.4  36d 163
2020 02 21 11  09 23 39.832   +23 54 32.68  1.0595 2.0229 161.9 22.4  36d 163
2020 02 21 12  09 23 36.946   +23 54 29.05  1.0599 2.0232 161.9 22.4  36d 163
2020 02 21 13  09 23 34.064   +23 54 25.40  1.0602 2.0234 161.8 22.4  36d 163
2020 02 21 14  09 23 31.186   +23 54 21.73  1.0606 2.0236 161.8 22.4  36d 163
2020 02 21 15  09 23 28.311   +23 54 18.04  1.0609 2.0238 161.7 22.4  36d 163
2020 02 21 16  09 23 25.439   +23 54 14.32  1.0613 2.0241 161.7 22.4  36d 163
2020 02 21 17  09 23 22.570   +23 54 10.59  1.0616 2.0243 161.6 22.4  36d 163
2020 02 21 18  09 23 19.705   +23 54 06.84  1.0619 2.0245 161.6 22.4  36d 163
2020 02 21 19  09 23 16.844   +23 54 03.06  1.0623 2.0247 161.5 22.4  36d 163
2020 02 21 20  09 23 13.985   +23 53 59.27  1.0626 2.0249 161.5 22.5  36d 163
2020 02 21 21  09 23 11.131   +23 53 55.45  1.0630 2.0252 161.4 22.5  36d 163
2020 02 21 22  09 23 08.279   +23 53 51.62  1.0633 2.0254 161.4 22.5  36d 163
2020 02 21 23  09 23 05.431   +23 53 47.76  1.0637 2.0256 161.4 22.5  36d 163
2020 02 22 00  09 23 02.587   +23 53 43.88  1.0640 2.0258 161.3 22.5  36d 163
2020 02 22 01  09 22 59.746   +23 53 39.98  1.0644 2.0261 161.3 22.5  36d 163
2020 02 22 02  09 22 56.908   +23 53 36.07  1.0647 2.0263 161.2 22.5  36d 163
2020 02 22 03  09 22 54.074   +23 53 32.13  1.0651 2.0265 161.2 22.5  36d 163
2020 02 22 04  09 22 51.243   +23 53 28.17  1.0654 2.0267 161.1 22.5  36d 163
2020 02 22 05  09 22 48.416   +23 53 24.19  1.0658 2.0269 161.1 22.5  36d 163
2020 02 22 06  09 22 45.592   +23 53 20.19  1.0661 2.0272 161.0 22.5  36d 163
2020 02 22 07  09 22 42.772   +23 53 16.17  1.0665 2.0274 161.0 22.5  36d 163
2020 02 22 08  09 22 39.955   +23 53 12.13  1.0668 2.0276 161.0 22.5  36d 163
2020 02 22 09  09 22 37.142   +23 53 08.07  1.0672 2.0278 160.9 22.5  36d 163
2020 02 22 10  09 22 34.332   +23 53 03.99  1.0675 2.0281 160.9 22.5  36d 163
2020 02 22 11  09 22 31.525   +23 52 59.89  1.0679 2.0283 160.8 22.5  36d 163
2020 02 22 12  09 22 28.722   +23 52 55.77  1.0682 2.0285 160.8 22.5  36d 163
2020 02 22 13  09 22 25.923   +23 52 51.62  1.0686 2.0287 160.7 22.5  36d 163
2020 02 22 14  09 22 23.127   +23 52 47.46  1.0689 2.0289 160.7 22.5  36d 163
2020 02 22 15  09 22 20.335   +23 52 43.28  1.0693 2.0292 160.6 22.5  36d 163
2020 02 22 16  09 22 17.546   +23 52 39.08  1.0696 2.0294 160.6 22.5  36d 163
2020 02 22 17  09 22 14.760   +23 52 34.85  1.0700 2.0296 160.5 22.5  36d 163
2020 02 22 18  09 22 11.978   +23 52 30.61  1.0704 2.0298 160.5 22.5  36d 163
2020 02 22 19  09 22 09.200   +23 52 26.35  1.0707 2.0301 160.5 22.5  36d 163
2020 02 22 20  09 22 06.425   +23 52 22.06  1.0711 2.0303 160.4 22.5  36d 163
2020 02 22 21  09 22 03.654   +23 52 17.76  1.0714 2.0305 160.4 22.5  36d 163
2020 02 22 22  09 22 00.886   +23 52 13.44  1.0718 2.0307 160.3 22.5  36d 163
2020 02 22 23  09 21 58.122   +23 52 09.09  1.0721 2.0309 160.3 22.5  36d 163
2020 02 23 00  09 21 55.362   +23 52 04.73  1.0725 2.0312 160.2 22.5  36d 163
2020 02 23 01  09 21 52.604   +23 52 00.34  1.0728 2.0314 160.2 22.5  36d 163
2020 02 23 02  09 21 49.851   +23 51 55.94  1.0732 2.0316 160.1 22.5  36d 163
2020 02 23 03  09 21 47.101   +23 51 51.52  1.0736 2.0318 160.1 22.5  36d 163
2020 02 23 04  09 21 44.355   +23 51 47.07  1.0739 2.0321 160.1 22.5  36d 163